Wind_Speed
25 25 26 24 24 23 22 22 22 22 21 21 20 19 18 18 18 18 17 17 17 16 17 17 17 18 17 17 17 17 17 17 18 18 18 18 19 19 18 18 18 19 19
25 25 24 24 24 24 24 23 23 22 23 22 21 21 20 19 19 19 19 19 19 19 18 18 18 20 20 19 19 19 19 19 19 20 20 19 20 20 21 20 21 21 21
25 25 25 26 25 24 24 25 24 24 24 23 22 22 21 21 20 20 20 20 20 20 20 20 19 20 21 21 21 21 21 20 21 21 21 21 21 22 22 23 23 23 24
24 25 25 26 26 26 26 26 25 25 24 24 23 23 22 22 21 21 21 21 21 21 21 21 21 21 22 22 22 22 23 23 23 24 24 23 24 24 25 25 25 26 26
25 25 25 26 25 26 26 25 25 25 24 24 23 23 23 23 23 22 22 22 22 22 22 22 21 22 22 23 24 24 24 25 25 25 25 26 26 26 27 27 27 27 28
25 26 26 26 26 25 24 24 25 24 24 24 24 23 23 24 23 23 23 23 23 23 23 22 22 22 23 24 24 25 25 25 26 26 27 28 28 28 28 29 29 29 29
25 25 25 25 24 24 24 25 24 24 24 24 24 23 23 24 23 24 24 25 25 25 24 24 23 23 24 24 24 25 25 25 25 26 28 28 29 28 28 29 29 29 30
23 23 24 24 24 25 25 25 25 24 24 24 24 23 23 24 24 24 24 25 26 26 25 25 25 25 25 25 24 25 27 27 27 27 28 28 28 28 29 29 29 30 31
23 23 24 25 25 25 24 24 24 23 23 23 23 23 23 23 24 25 25 25 25 26 26 26 26 26 25 26 26 27 28 28 27 27 28 29 29 30 30 30 30 30 31
24 25 24 25 25 25 24 24 25 24 24 23 23 23 23 24 24 24 25 25 25 25 25 25 26 27 27 27 27 27 27 28 28 28 29 29 30 29 30 30 30 30 31
24 24 25 26 26 26 25 25 25 25 24 24 24 24 24 24 25 25 25 25 25 25 25 26 26 26 27 27 27 27 28 29 28 29 29 30 30 29 30 29 30 31 31
24 24 25 26 26 26 26 25 25 25 24 24 24 24 24 24 25 25 26 26 25 25 25 25 25 25 26 27 27 28 29 29 29 30 30 29 30 30 31 30 30 31 32
24 23 24 24 24 25 26 26 26 25 25 26 26 25 25 25 25 26 26 26 26 25 25 25 25 26 26 27 27 27 28 28 28 28 29 29 29 30 30 30 31 31 30
24 23 23 23 24 25 25 26 26 26 26 26 26 26 26 26 26 26 27 27 27 26 25 25 25 26 27 27 27 27 27 27 27 27 27 28 29 29 28 29 30 30 30
25 24 24 23 24 24 25 26 26 26 26 27 27 27 27 27 27 27 27 27 27 27 26 25 26 26 27 26 26 26 26 27 27 27 27 27 27 27 27 28 28 28 28
24 25 25 25 25 26 27 27 27 28 28 28 28 28 28 28 28 27 27 26 26 26 25 24 24 25 25 24 25 25 25 25 25 26 26 26 26 25 26 26 26 26 27
25 25 25 25 26 26 27 28 28 29 29 29 29 28 28 28 27 27 27 26 25 25 25 24 23 23 23 24 24 24 24 24 24 24 24 24 24 24 24 24 23 23 23
25 25 25 25 26 26 26 26 27 28 28 28 28 28 28 27 27 27 26 25 25 24 24 23 23 22 22 22 22 22 22 22 22 22 22 22 21 21 21 21 21 21 20
26 26 26 26 25 26 26 26 26 26 26 26 26 26 26 26 25 25 25 24 24 23 23 23 22 22 22 21 21 21 20 20 21 20 20 19 19 18 18 18 18 18 17
25 25 25 25 25 25 25 25 25 24 24 24 24 23 24 24 24 24 23 23 23 22 22 21 21 20 20 20 19 19 19 19 19 18 18 17 16 15 15 15 15 15 15
24 24 24 23 23 23 23 23 23 22 22 22 22 22 22 22 22 22 22 21 21 21 20 20 20 19 19 18 18 18 18 17 17 16 15 14 13 13 13 13 13 13 13
23 24 22 22 21 21 21 20 20 20 20 21 21 22 21 20 20 19 19 19 19 19 18 18 18 18 17 17 16 16 14 13 13 12 12 11 11 11 11 11 11 10 10
23 22 21 21 20 20 19 19 19 18 18 19 19 18 18 17 17 16 16 16 16 16 16 15 15 14 14 13 13 12 11 10 10 9 9 8 8 9 9 8 8 8 8
21 20 19 19 19 19 19 18 17 16 15 16 15 14 15 14 14 14 14 14 14 13 13 13 13 13 12 11 10 9 8 7 7 7 7 7 7 6 6 6 6 6 7
19 18 17 17 17 17 17 16 15 14 13 12 11 11 11 11 11 12 12 11 10 11 12 11 10 9 8 8 7 6 5 5 5 5 4 4 5 5 4 5 6 6 7
16 16 15 15 14 14 13 13 12 12 11 9 9 9 9 9 9 9 9 9 8 8 9 8 7 7 6 5 5 4 4 4 3 3 3 3 4 4 4 5 6 7 8
Wind_Direction
256 253 253 255 256 259 261 263 263 264 264 265 267 269 271 273 272 272 273 274 274 275 277 275 270 266 266 264 265 263 264 265 264 263 260 259 258 259 261 261 262 262 263
256 255 254 255 260 262 262 264 263 264 264 264 266 267 270 272 272 272 272 272 273 275 276 276 274 269 266 265 266 266 266 267 266 264 262 261 261 260 261 262 262 263 265
261 260 256 260 263 262 264 265 264 266 266 265 266 267 268 271 273 272 272 273 274 275 275 276 276 274 270 268 267 267 268 269 266 266 265 263 263 264 263 263 264 264 266
263 260 261 264 263 263 265 266 267 268 267 266 266 267 268 270 272 272 274 273 274 275 275 276 276 276 273 270 271 271 270 270 269 267 266 265 265 266 266 266 266 265 267
264 262 264 264 265 267 268 266 267 270 267 267 267 268 268 269 271 272 273 273 274 275 274 274 275 276 276 273 272 273 273 271 270 269 267 266 267 268 268 268 267 268 267
264 264 266 264 266 268 267 266 268 269 269 270 269 270 270 271 271 272 274 273 273 274 275 274 274 276 276 274 272 273 274 272 270 269 268 268 268 269 270 270 269 269 270
266 266 266 267 266 266 265 266 266 269 271 270 271 271 272 273 273 273 275 274 274 274 273 273 274 275 276 274 274 274 275 275 273 271 270 270 271 271 273 273 273 271 271
270 270 270 269 268 268 267 267 267 270 271 273 273 272 274 274 275 275 275 275 274 272 272 273 274 276 276 276 275 273 273 275 275 275 273 273 274 275 274 273 274 273 273
271 271 272 270 270 270 269 269 268 270 271 272 273 275 276 276 276 275 275 273 271 272 274 274 274 276 277 276 275 276 274 275 276 275 276 276 278 277 275 274 274 275 274
274 270 272 273 273 272 270 270 271 272 271 272 275 277 276 275 276 275 275 275 274 274 274 273 274 275 276 277 277 278 277 276 275 276 277 277 278 279 278 278 277 278 280
278 277 274 272 273 273 273 272 271 273 273 274 276 277 276 277 277 277 277 278 277 275 274 275 275 276 277 279 279 279 278 278 277 277 277 277 279 281 281 279 279 282 282
281 278 276 274 273 273 272 272 271 273 273 274 276 277 278 278 279 278 278 278 278 275 274 275 277 278 279 280 280 280 280 279 278 279 279 280 281 281 281 279 280 282 283
281 280 278 277 277 274 271 271 270 271 272 274 275 276 277 277 278 280 281 282 281 277 276 276 278 279 280 281 281 281 282 280 279 279 279 281 282 281 280 280 279 280 283
283 281 279 278 277 275 274 273 273 273 273 274 274 276 277 278 279 281 282 282 281 278 277 277 278 278 279 281 281 281 282 282 281 282 281 282 282 282 282 283 282 282 282
282 283 283 281 279 277 276 276 275 275 275 274 275 275 275 277 278 281 281 282 281 281 278 277 277 277 279 280 281 280 282 282 281 282 282 284 284 284 283 283 283 283 283
283 283 282 282 280 279 278 278 277 276 275 275 275 275 275 275 276 278 279 280 279 280 279 278 277 276 277 279 281 281 282 283 282 283 284 286 286 284 285 285 286 287 287
285 284 281 281 280 280 280 279 278 276 275 274 274 274 274 274 274 275 276 277 277 277 278 277 277 278 279 280 281 281 282 283 284 284 286 288 288 287 286 287 288 289 289
285 285 283 282 281 280 280 279 279 277 275 274 274 274 273 273 273 273 272 272 273 274 275 275 276 278 279 280 280 281 282 282 285 285 287 289 288 288 287 287 287 287 288
285 284 283 282 282 281 280 281 280 279 277 275 274 274 272 271 271 271 269 268 270 271 272 273 274 277 279 278 279 282 282 284 284 285 288 289 289 288 288 287 286 289 293
286 284 283 283 282 282 281 281 281 280 278 276 274 272 271 271 270 268 267 267 268 268 268 270 272 275 276 277 279 280 281 282 284 284 287 289 288 285 285 288 291 294 298
286 284 283 281 281 282 282 281 280 279 278 276 273 272 270 270 268 266 265 265 266 266 266 267 270 272 274 276 278 280 281 280 281 283 288 287 285 284 288 292 297 301 305
284 283 282 280 280 282 283 283 280 279 276 276 273 271 270 267 264 264 263 262 263 263 263 265 268 270 273 274 276 277 280 279 281 284 287 286 285 286 292 298 301 303 308
283 281 280 281 281 280 281 283 280 278 277 276 274 268 263 262 261 259 260 259 259 260 262 264 265 267 269 272 273 273 275 277 279 280 284 286 290 297 299 303 309 313 313
281 279 278 277 279 278 278 281 279 276 276 276 272 266 261 261 255 254 259 260 257 257 258 260 263 263 262 261 263 267 269 270 273 279 284 290 301 311 312 309 309 309 315
277 276 277 277 278 276 274 276 275 273 273 272 268 266 264 260 254 256 256 255 254 253 252 251 253 251 251 254 255 256 261 267 275 283 292 299 307 312 311 311 315 320 327
279 275 273 275 275 275 273 274 272 268 266 264 258 260 260 255 250 247 246 243 245 242 241 239 238 236 235 235 237 249 261 267 274 284 298 304 307 309 319 327 332 334 338
Height
5874 5875 5875 5877 5878 5879 5880 5881 5881 5882 5883 5883 5883 5884 5884 5884 5885 5884 5885 5885 5885 5885 5885 5885 5885 5885 5886 5886 5886 5887 5887 5887 5888 5888 5889 5889 5889 5890 5890 5890 5891 5891 5891
5869 5869 5870 5872 5873 5874 5875 5875 5875 5877 5878 5878 5879 5879 5880 5880 5880 5880 5881 5881 5881 5881 5881 5881 5881 5881 5882 5882 5882 5883 5883 5884 5884 5884 5884 5885 5885 5886 5886 5886 5886 5887 5887
5863 5865 5866 5868 5869 5869 5870 5871 5871 5872 5873 5873 5874 5875 5875 5876 5876 5876 5876 5877 5877 5877 5877 5877 5877 5877 5877 5878 5878 5878 5879 5879 5879 5880 5880 5880 5881 5881 5881 5882 5882 5882 5882
5858 5860 5861 5863 5863 5864 5865 5866 5867 5867 5867 5868 5869 5869 5870 5870 5871 5871 5871 5871 5872 5872 5872 5872 5872 5872 5873 5873 5874 5874 5874 5874 5874 5875 5875 5876 5876 5876 5876 5877 5877 5877 5877
5854 5855 5856 5857 5858 5859 5859 5860 5861 5861 5862 5862 5863 5864 5865 5865 5865 5866 5866 5866 5867 5867 5867 5867 5867 5868 5868 5868 5869 5869 5869 5869 5869 5869 5870 5870 5871 5870 5870 5871 5871 5871 5871
5849 5850 5851 5852 5853 5854 5854 5855 5856 5856 5857 5857 5858 5858 5859 5859 5860 5860 5860 5861 5861 5861 5861 5862 5862 5863 5863 5863 5863 5863 5863 5863 5863 5863 5864 5864 5864 5864 5864 5864 5864 5864 5864
5844 5844 5846 5846 5847 5848 5849 5850 5850 5850 5851 5851 5852 5853 5853 5853 5854 5854 5855 5855 5855 5855 5856 5856 5857 5857 5857 5858 5858 5858 5857 5857 5857 5857 5857 5858 5858 5858 5858 5858 5858 5857 5857
5839 5840 5841 5841 5842 5843 5843 5844 5845 5845 5845 5846 5846 5847 5847 5848 5848 5848 5849 5849 5849 5849 5850 5850 5851 5851 5851 5852 5852 5852 5852 5852 5851 5851 5851 5851 5851 5851 5851 5851 5851 5850 5851
5834 5835 5835 5836 5836 5837 5838 5838 5839 5839 5840 5840 5840 5841 5842 5842 5842 5843 5842 5842 5842 5843 5844 5844 5845 5845 5845 5846 5846 5846 5846 5846 5846 5846 5845 5845 5845 5845 5844 5844 5844 5844 5843
5829 5829 5830 5830 5831 5831 5832 5832 5833 5833 5834 5834 5835 5835 5835 5836 5836 5837 5836 5836 5836 5837 5837 5838 5838 5839 5839 5839 5840 5840 5840 5840 5840 5839 5839 5839 5839 5838 5838 5837 5837 5836 5836
5824 5824 5824 5824 5825 5825 5825 5826 5827 5827 5828 5828 5829 5829 5829 5829 5830 5830 5830 5830 5830 5831 5831 5832 5832 5832 5833 5833 5833 5833 5833 5833 5833 5833 5832 5832 5831 5831 5830 5830 5830 5829 5828
5819 5819 5818 5818 5819 5819 5819 5820 5821 5821 5821 5822 5822 5823 5823 5823 5823 5823 5824 5824 5824 5824 5824 5825 5826 5826 5826 5826 5826 5826 5826 5826 5826 5826 5825 5825 5824 5824 5823 5823 5822 5822 5821
5813 5812 5812 5812 5812 5812 5813 5813 5814 5815 5815 5815 5816 5816 5816 5817 5817 5817 5817 5817 5817 5818 5818 5819 5819 5819 5819 5819 5819 5819 5819 5819 5819 5818 5818 5818 5817 5816 5816 5815 5815 5814 5813
5806 5806 5806 5806 5806 5806 5806 5806 5807 5807 5808 5809 5809 5809 5810 5810 5810 5810 5810 5810 5810 5811 5811 5812 5812 5812 5812 5812 5812 5812 5812 5812 5812 5811 5811 5810 5810 5809 5809 5808 5807 5806 5806
5800 5800 5799 5799 5799 5799 5799 5799 5799 5800 5801 5801 5802 5802 5803 5803 5803 5803 5803 5804 5804 5804 5805 5805 5806 5806 5806 5806 5805 5805 5805 5805 5805 5804 5804 5803 5803 5802 5802 5801 5800 5799 5798
5793 5793 5792 5792 5792 5792 5792 5792 5792 5792 5793 5793 5794 5795 5795 5796 5796 5796 5797 5797 5797 5797 5798 5798 5799 5799 5799 5799 5799 5799 5798 5798 5798 5798 5797 5797 5796 5795 5795 5794 5793 5792 5791
5786 5786 5785 5785 5784 5784 5784 5784 5784 5784 5785 5785 5786 5786 5787 5788 5788 5789 5789 5790 5790 5791 5791 5792 5792 5792 5792 5793 5793 5792 5792 5792 5792 5791 5791 5790 5789 5789 5788 5788 5787 5785 5784
5779 5778 5778 5777 5777 5776 5776 5776 5776 5776 5776 5777 5777 5778 5778 5779 5780 5781 5782 5782 5783 5784 5785 5785 5786 5786 5786 5787 5787 5786 5786 5786 5786 5785 5785 5784 5783 5783 5782 5782 5781 5780 5779
5772 5771 5770 5770 5769 5769 5769 5768 5768 5768 5768 5768 5769 5769 5770 5771 5772 5773 5774 5775 5776 5777 5778 5779 5780 5780 5781 5781 5781 5781 5780 5780 5780 5780 5779 5779 5778 5778 5777 5776 5776 5775 5774
5765 5764 5763 5763 5762 5762 5761 5761 5761 5760 5760 5760 5761 5762 5763 5764 5765 5766 5767 5769 5770 5771 5772 5773 5774 5775 5775 5775 5776 5776 5776 5775 5775 5775 5774 5774 5773 5773 5772 5772 5771 5770 5769
5758 5757 5757 5756 5756 5755 5755 5754 5754 5754 5754 5754 5754 5755 5755 5757 5758 5759 5761 5762 5763 5765 5766 5767 5768 5769 5770 5770 5771 5771 5771 5770 5770 5770 5770 5770 5769 5769 5768 5768 5767 5766 5765
5751 5751 5750 5750 5750 5749 5748 5748 5747 5747 5747 5747 5748 5748 5749 5750 5752 5753 5755 5756 5758 5759 5761 5762 5763 5764 5765 5766 5766 5766 5766 5766 5766 5766 5766 5766 5766 5765 5765 5764 5763 5763 5762
5745 5744 5744 5744 5744 5744 5743 5742 5742 5741 5741 5741 5741 5742 5743 5745 5746 5748 5750 5751 5753 5754 5756 5758 5759 5760 5761 5761 5762 5762 5762 5763 5763 5763 5763 5763 5763 5762 5762 5761 5760 5760 5759
5738 5738 5738 5738 5738 5738 5738 5737 5737 5737 5737 5737 5737 5738 5739 5741 5743 5744 5746 5748 5749 5751 5752 5754 5755 5756 5757 5758 5758 5759 5759 5760 5760 5760 5760 5760 5760 5760 5759 5759 5758 5758 5757
5733 5733 5733 5733 5733 5733 5733 5733 5733 5733 5733 5734 5735 5736 5737 5738 5740 5741 5743 5745 5746 5748 5749 5750 5752 5753 5753 5754 5755 5756 5757 5757 5758 5758 5758 5758 5758 5758 5758 5757 5756 5755 5754
5728 5728 5729 5729 5729 5729 5729 5729 5730 5730 5731 5732 5733 5734 5735 5736 5738 5739 5741 5742 5744 5746 5747 5748 5750 5751 5752 5753 5754 5755 5755 5756 5756 5756 5757 5757 5757 5756 5756 5755 5754 5753 5752